Location: ?????????
(55.6553°N, 38.9075°E)
Time: 08:11:11
(UTC+00:00)

Cosmos 1763 Rocket - Pass Details

Date: 18 October 2019
Orbit: 733 x 779 km, 74.0° (Epoch: 17 November)

Event Time Altitude Azimuth Distance (km) Brightness Sun altitude
Rises 02:16:55 0° 332° (NNW) 3,248 6.5 -15.2°
Reaches altitude 10° 02:19:23 10° 337° (NNW) 2,311 5.8 -14.9°
Maximum altitude 02:24:30 52° 54° (NE) 941 4.3 -14.2°
Drops below altitude 10° 02:29:31 10° 131° (SE) 2,267 6.6 -13.5°
Sets 02:31:55 0° 137° (SE) 3,180 7.3 -13.1°
